Home > Time Zones > World Clock > Weather > Norway > Alta > Past weeks

Flag for Norway Weather past 2 weeks in Alta, Norway

Now
29 °F

Chilly.


Feels Like: 26 °F
Forecast: 29 / 40 °F
Wind: 3 mph from Southeast

Location: Alta Lufthavn

Current Time: Oct 23, 2014 at 4:09:01 AM

Latest Report: Oct 23, 2014 at 3:00 AM


Visibility: N/A

Pressure: 30.15 "Hg

Humidity: 66%

Dew point: 19 °F

Location of AltaLocation

Historic Weather in Alta — Graph

°F

Alta temperature yesterday

Maximum temperature yesterday: 28 °F (at 11:00 PM)
Minimum temperature yesterday: 22 °F (at 2:00 AM)
Average temperature yesterday: 26 °F

Past Weeks' High & Low Weather Summary

 TemperatureHumidityPressure
High41 °F (Oct 17, 4:00 PM)93% (Oct 18, 6:00 PM)30.33 "Hg (Oct 18, 6:00 PM)
Low20 °F (Oct 20, 1:00 AM)50% (Oct 9, 2:00 PM)29.78 "Hg (Oct 20, 2:00 AM)
Average31 °F75%30.02 "Hg
* Reported Oct 8 2:00 AM — Oct 23 2:00 AM, Alta, Weather by CustomWeather, © 2014

Note: Actual official high and low records may vary slightly from our data, if they occured in-between our weather recording intervals... More about our weather records

Advertising

Alta weather history for previous 24 hours

 ConditionsComfort  
Time TempWeatherWind HumidityBarometerVisibility
2:00 AM
Oct 23
29 °FChilly.7 mph65%30.15 "HgN/A
1:00 AM28 °FChilly.7 mph65%30.16 "HgN/A
12:00 AM28 °FChilly.8 mph63%30.16 "HgN/A
11:00 PM
Oct 22
28 °FChilly.9 mph62%30.17 "HgN/A
10:00 PM28 °FChilly.10 mph63%30.17 "HgN/A
9:00 PM28 °FChilly.7 mph63%30.16 "HgN/A
8:00 PM28 °FChilly.8 mph64%30.17 "HgN/A
7:00 PM27 °FChilly.9 mph64%30.17 "HgN/A
6:00 PM27 °FChilly.9 mph64%30.16 "HgN/A
5:00 PM27 °FChilly.9 mph64%30.16 "HgN/A
4:00 PM27 °FChilly.10 mph65%30.15 "HgN/A
3:00 PM27 °FChilly.13 mph64%30.16 "HgN/A
2:00 PM28 °FChilly.8 mph62%30.16 "HgN/A
1:00 PM28 °FChilly.9 mph63%30.16 "HgN/A
12:00 PM28 °FChilly.10 mph62%30.17 "HgN/A
11:00 AM28 °FChilly.8 mph63%30.17 "HgN/A
10:00 AM26 °FChilly.10 mph66%30.18 "HgN/A
9:00 AM26 °FChilly.12 mph65%30.18 "HgN/A
8:00 AM26 °FChilly.10 mph67%30.17 "HgN/A
7:00 AM25 °FChilly.12 mph66%30.17 "HgN/A
6:00 AM24 °FCold.9 mph67%30.16 "HgN/A
5:00 AM24 °FCold.10 mph68%30.16 "HgN/A
4:00 AM23 °FCold.9 mph72%30.16 "HgN/A
Weather by CustomWeather, © 2014

See weather overviewHow to use our weather pages